Burlington, CO

9:45 AM MST on December 03, 2016 (GMT -0700)
Kit Carson County

Weather History for KITR - February, 2013

Change the Weather History Date:

Tuesday, February 19, 2013

  Actual Average Record
Temperature  
Mean Temperature 26 °F 32 °F  
Max Temperature 45 °F 45 °F 71 °F (1930)
Min Temperature 7 °F 19 °F -6 °F (2006)
Degree Days  
Heating Degree Days 39    
Moisture  
Dew Point 14 °F    
Average Humidity 64    
Maximum Humidity 89    
Minimum Humidity 32    
Precipitation  
Precipitation 0.00 in 0.01 in 0.60 in (1919)
Month to date precipitation T 0.24  
Year to date precipitation 0.02 0.62  
Sea Level Pressure  
Sea Level Pressure 30.12 in    
Wind  
Wind Speed 13 mph (SSE)    
Max Wind Speed 28 mph    
Max Gust Speed 36 mph    
Visibility 10 miles    
Events      
T = Trace of Precipitation, MM = Missing Value Source: NWS Daily Summary

Daily Weather History Graph

Daily Weather History Graph

Search for Another Location

Airport or City:

Trip Planner

Search our weather history database for the weather conditions in past years. The results will help you decide how hot, cold, wet, or windy it might be!

Date:

Astronomy

Feb. 19, 2013 Rise Set
Actual Time 6:35 AM MST 5:31 PM MST
Civil Twilight 6:08 AM MST 5:58 PM MST
Nautical Twilight 5:36 AM MST 6:29 PM MST
Astronomical Twilight 5:05 AM MST 7:00 PM MST
Moon 12:05 PM MST (2/19) 2:07 AM MST (2/19)
Length of Visible Light 11h 50m
Length of Day
10h 55m
Waxing Gibbous, 68% of the Moon is Illuminated
Feb 19
Waxing Gibbous
Feb 25
Full
Mar 4
Last Quarter
Mar 11
New
Mar 19
First Quarter

Hourly Weather History & Observations

Time (MST) Temp. Windchill Dew Point Humidity Pressure Visibility Wind Dir Wind Speed Gust Speed Precip Events Conditions
12:53 AM 12.0 °F 2.7 °F 8.1 °F 84% 30.19 in 10.0 mi West 5.8 mph - N/A   Clear
1:53 AM 12.0 °F 0.5 °F 9.0 °F 88% 30.19 in 10.0 mi West 8.1 mph - N/A   Clear
2:53 AM 10.9 °F 1.4 °F 7.0 °F 84% 30.19 in 10.0 mi West 5.8 mph - N/A   Clear
3:53 AM 10.0 °F 0.4 °F 7.0 °F 87% 30.19 in 10.0 mi WSW 5.8 mph - N/A   Clear
4:53 AM 12.0 °F 4.1 °F 8.1 °F 84% 30.21 in 10.0 mi WSW 4.6 mph - N/A   Clear
5:53 AM 9.0 °F - 6.1 °F 88% 30.24 in 10.0 mi Calm Calm - N/A   Clear
6:53 AM 10.9 °F 2.9 °F 8.1 °F 88% 30.27 in 10.0 mi SE 4.6 mph - N/A   Clear
7:53 AM 21.9 °F 12.5 °F 19.0 °F 89% 30.26 in 10.0 mi ESE 8.1 mph - N/A   Clear
8:53 AM 27.0 °F 14.3 °F 19.9 °F 75% 30.26 in 10.0 mi SSE 17.3 mph - N/A   Clear
9:53 AM 32.0 °F 21.2 °F 19.9 °F 61% 30.21 in 10.0 mi ESE 16.1 mph - N/A   Clear
11:53 AM 39.9 °F 29.5 °F 18.0 °F 41% 30.14 in 10.0 mi SE 24.2 mph 28.8 mph N/A   Clear
12:53 PM 42.1 °F 31.7 °F 16.0 °F 35% 30.11 in 10.0 mi SSE 27.6 mph 35.7 mph N/A   Clear
1:53 PM 43.0 °F 33.8 °F 15.1 °F 32% 30.06 in 10.0 mi SSE 23.0 mph 32.2 mph N/A   Clear
2:53 PM 42.1 °F 32.3 °F 16.0 °F 35% 30.04 in 10.0 mi SSE 24.2 mph 33.4 mph N/A   Clear
3:53 PM 42.1 °F 31.9 °F 16.0 °F 35% 30.02 in 10.0 mi SE 26.5 mph 34.5 mph N/A   Clear
5:53 PM 34.0 °F 21.8 °F 15.1 °F 46% 30.04 in 10.0 mi ESE 23.0 mph 29.9 mph N/A   Clear
6:53 PM 32.0 °F 18.6 °F 15.1 °F 50% 30.05 in 10.0 mi ESE 25.3 mph 32.2 mph N/A   Clear
7:53 PM 30.0 °F 15.4 °F 15.1 °F 54% 30.02 in 10.0 mi SE 27.6 mph 35.7 mph N/A   Clear
8:53 PM 27.0 °F 12.5 °F 14.0 °F 58% 30.01 in 10.0 mi SE 23.0 mph 33.4 mph N/A   Clear
9:53 PM 27.0 °F 12.2 °F 15.1 °F 61% 29.98 in 10.0 mi SE 24.2 mph 32.2 mph N/A   Clear
10:53 PM 27.0 °F 11.6 °F 16.0 °F 63% 29.94 in 10.0 mi SE 26.5 mph 32.2 mph N/A   Clear
11:53 PM 28.0 °F 12.8 °F 18.0 °F 66% 29.92 in 10.0 mi SE 27.6 mph 35.7 mph N/A   Clear